Regional Weather Roundup
Issued by NWS Newport/Morehead, NC

Current Version | Previous Version | Text Only | Print | Product List | Glossary On
Versions: 1 2 3 4 5 6 7 8 9 10 11 12 13 14 15 16 17 18 19 20 21 22 23 24 25 26 27 28 29 30 31 32 33 34 35 36 37 38 39 40 41 42 43 44 45 46 47 48 49 50
000
ASUS42 KMHX 302214
RWRMHX
WEATHER ROUNDUP FOR EASTERN NORTH CAROLINA
NATIONAL WEATHER SERVICE NEWPORT/MOREHEAD CITY NC
600 PM EDT SUN APR 30 2017

NOTE: "FAIR" INDICATES FEW OR NO CLOUDS BELOW 12,000 FEET
WITH NO SIGNIFICANT WEATHER AND/OR OBSTRUCTIONS TO VISIBILITY

NCZ015>017-031-032-045>047-102-103-302300-
NORTH COAST

CITY           SKY/WX    TMP DP  RH WIND       PRES   REMARKS
EDENTON        MOSUNNY   85  68  57 S9        30.11S
ELIZABETH CITY SUNNY     84  70  62 S13       30.10F
KITTY HAWK     PTCLDY    82  67  60 S8        30.12S
MANTEO         SUNNY     80  70  71 S17       30.13F

$$

NCZ045>047-081-094-103-104-302300-
CENTRAL COAST

CITY           SKY/WX    TMP DP  RH WIND       PRES   REMARKS
FRISCO         MOSUNNY   78  70  76 SW12G18   30.18S HAZE

$$

NCZ095-097-098-100-101-302300-
SOUTHERN COAST

CITY           SKY/WX    TMP DP  RH WIND       PRES   REMARKS
BEAUFORT       SUNNY     77  72  84 SW16      30.17F
CEDAR ISLAND   NOT AVBL
JACKSONVILLE   SUNNY     81  70  69 S10       30.14S
PINEY ISLAND   CLEAR    N/A N/A N/A SW20      30.16S
WILMINGTON     SUNNY     81  65  58 S13       30.16S


$$

NCZ011>013-027>030-043-044-078>080-089-090>093-098-302300-
COASTAL PLAIN

CITY           SKY/WX    TMP DP  RH WIND       PRES   REMARKS
AHOSKIE          N/A     82  68  63 SW3       30.10S
CLINTON        SUNNY     83  67  56 S8G16     30.12F
ELIZABETHTOWN  SUNNY     83  64  52 S12G20    30.13F
GOLDSBORO      SUNNY     85  64  48 S12       30.09F
GREENVILLE     SUNNY     86  64  48 SW16      30.12S
HAVELOCK       NOT AVBL
KENANSVILLE    SUNNY     82  63  51 S5        30.13F
KINSTON        SUNNY     86  61  42 SW10      30.13S
NEW BERN       SUNNY     83  68  60 S10G21    30.15S
RICHLANDS      SUNNY     84  63  49 S15       30.15S
ROCKY MOUNT    LGT RAIN  77  71  82 W10       30.11S
WASHINGTON     SUNNY     85  65  51 SW14      30.11F
WHITEVILLE     SUNNY     82  66  58 S14       30.13F

$$

AMZ130-135-150-152-154-156-158-170-250-252-270-ANZ085-086-088-633-658-670-302300-
MARINE OBSERVATIONS

STATION/POSITION TIME  TEMP    WIND        PRES    WAVE   SWELL
                       AIR SEA DIR/SP/G            HT/PER HT/PER
                 (UTC) (F)     (DEG/KT/KT) (MB)    (FT/S) (FT/S)
CHESAPEAKE LIGHT NOT AVBL
64 E VA BEACH    2150   64 61  200/ 10/ 12 1021.2    2/ 5   2/ 5
DUCK             2142   81 57  190/ 15/ 19 1019.2
2 E DUCK         2200      61                N/A     2/ 7
OREGON INLET     2142   76 80  190/ 21/ 24 1020.7
13E OREGON INLT  2148      64                N/A     3/ 5   2/ 7
HATTERAS CG      2142   76 75  200/ 11/ 17 1021.7
DIAMOND BUOY     2150   78 75  220/ 16/ 17 1022.1    3/ 5   2/ 7
CAPE LOOKOUT     2200   76     210/ 10/ 12 1021.8
BEAUFORT LAB     2142   77 75  210/  9/ 11 1021.1
30 SE NEW RVR IN 2108   75     220/ 10/ 14 1022.3
30 SE NEW RVR IN 2143      74                N/A     4/ 5
27 SE WRIGHTSVLE 2108   76 75  200/ 12/ 16 1021.0
5 SE WRIGHTSVLE  2108   74 73  200/ 10/ 14 1021.5
225 S CAPE HAT   2150   74 76  160/  8/ 10 1023.6    3/ 7   3/ 7
41 SE CHARLESTON 2150   77 76  180/ 14/ 17 1020.8    4/ 7   2/11

$$



USA.gov is the U.S. government's official web portal to all federal, state and local government web resources and services.